RH
80 77 74 76 88 80 80 78 78 77 77 76 76 85 58 56 60 57 42 46 52 65 71 65 59 70 78 75 75 78 79 75 70 61 58 58 47 42 39 29 44 48 50
76 73 63 81 78 80 76 76 72 67 64 73 78 57 58 63 64 47 44 51 59 72 76 70 61 70 71 72 73 70 69 68 68 68 60 52 41 39 33 30 37 51 58
63 62 82 82 82 80 77 71 68 62 79 70 66 62 66 64 48 49 50 60 69 71 74 76 68 73 74 77 74 60 66 72 72 68 65 54 43 39 30 28 45 52 47
68 80 82 83 79 77 72 69 70 73 73 84 71 91 84 73 59 51 57 65 64 75 80 85 83 82 76 67 47 61 73 72 72 73 67 58 48 35 31 50 40 48 40
78 79 81 75 72 73 71 73 70 70 71 75 92 91 90 84 53 60 67 72 77 79 83 92 97 93 86 71 56 60 73 74 75 77 70 62 43 34 41 53 52 52 66
78 81 79 73 71 68 67 70 73 76 89 92 96 96 87 63 69 68 73 75 76 78 87 93 89 89 88 82 73 64 79 78 79 82 75 52 40 41 42 52 76 88 98
85 82 76 74 68 69 72 80 91 95 100 100 97 78 63 68 64 68 72 75 77 78 91 96 94 96 95 95 73 74 80 78 82 81 64 46 44 45 53 58 82 97 97
83 77 75 70 70 79 91 98 99 99 95 89 70 58 57 63 66 70 73 78 78 83 97 97 96 97 98 90 80 81 76 78 77 70 50 49 52 47 58 80 99 96 90
74 72 72 76 89 89 97 98 90 64 56 50 54 52 59 61 62 61 71 80 84 91 91 94 95 99 91 83 74 83 80 69 69 51 54 59 65 61 62 62 67 88 85
72 78 89 94 99 98 79 55 51 52 45 42 42 48 48 43 52 64 75 85 89 90 94 96 98 95 96 81 75 76 71 70 58 57 63 67 71 72 71 72 76 88 91
75 91 99 96 76 58 54 52 41 33 39 43 44 39 36 42 50 64 74 85 95 96 95 97 97 97 98 89 85 73 69 67 61 68 71 68 71 74 74 74 75 78 78
97 89 75 59 54 50 40 32 34 38 39 37 36 35 39 44 55 58 69 88 92 96 93 97 98 99 97 94 89 76 69 69 70 76 76 74 80 78 80 77 71 71 89
58 52 46 39 35 34 34 34 37 40 40 42 45 47 45 48 57 65 76 90 95 98 99 99 100 98 100 98 91 82 76 83 79 85 80 79 84 82 82 76 67 68 64
40 42 45 45 45 48 55 62 68 68 68 67 64 60 60 66 70 68 74 74 87 99 97 91 88 98 97 98 94 95 91 95 85 87 84 80 81 88 90 76 66 70 61
48 49 51 54 53 49 49 60 69 70 87 94 94 98 94 85 80 88 86 74 71 82 99 98 93 95 96 96 95 96 97 99 88 89 89 83 84 94 93 70 68 70 73
40 41 44 48 51 57 58 48 49 47 44 52 77 84 90 94 96 99 99 96 89 83 96 99 97 95 93 88 96 96 97 98 88 91 92 87 90 99 91 64 69 75 76
41 39 32 22 15 15 18 26 27 11 22 25 74 79 78 84 82 98 98 95 98 96 97 99 86 88 97 96 96 96 97 98 93 97 93 86 94 98 87 67 64 69 71
19 13 10 11 14 18 22 27 32 44 50 28 24 59 75 85 91 90 95 94 97 96 93 99 93 84 87 96 96 96 98 90 88 99 91 94 98 98 79 70 62 67 73
10 10 11 13 16 23 33 44 55 82 100 100 85 67 76 77 96 94 95 94 95 97 97 92 89 96 94 94 97 96 97 89 90 96 90 100 100 100 92 76 58 67 75
11 13 14 18 24 35 54 71 90 98 97 100 99 90 95 98 93 98 84 82 81 83 97 94 94 97 96 96 96 96 95 89 91 91 90 96 100 100 92 82 60 62 69
14 16 22 30 42 54 63 76 91 100 96 94 98 100 99 96 97 95 92 85 100 98 94 97 96 96 96 96 96 97 94 85 88 89 94 96 100 99 98 82 59 61 63
22 27 34 42 49 55 61 71 80 88 91 94 91 92 98 99 96 98 100 100 97 96 97 98 99 98 96 97 96 96 96 94 86 87 94 95 98 100 100 84 64 59 62
32 35 40 45 51 57 60 65 72 78 83 85 89 93 93 95 96 96 96 98 97 96 99 97 99 98 96 97 97 96 96 94 90 86 88 94 99 100 100 85 73 59 60
38 43 46 52 58 62 68 70 74 78 81 84 86 89 95 96 95 96 95 96 96 91 93 96 98 100 96 96 96 96 96 96 96 95 93 95 98 100 100 96 81 69 61
47 50 53 58 63 67 69 71 76 79 82 84 88 91 94 95 96 96 96 96 96 97 94 92 99 100 100 94 96 97 97 97 96 96 96 96 95 96 97 99 93 76 62
53 56 60 62 65 68 71 74 76 80 82 85 88 92 95 93 95 96 96 96 96 96 98 98 98 97 98 96 96 97 96 96 96 96 96 96 97 96 96 96 92 81 64
Wind_Speed
27 26 30 29 31 30 28 30 31 31 32 28 25 17 14 9 12 16 19 18 19 20 22 24 20 17 17 17 17 18 20 22 26 32 31 32 32 31 31 28 27 26 25
28 30 27 28 27 27 30 30 30 29 23 20 15 12 10 11 14 18 18 18 19 20 22 23 19 18 18 19 20 21 23 22 24 30 32 31 30 30 31 28 26 24 23
29 28 29 30 29 29 28 25 22 20 15 10 11 8 9 14 18 18 20 19 21 23 23 21 19 19 20 21 23 23 22 23 25 27 32 33 32 31 30 28 25 23 23
28 29 28 28 28 24 23 22 20 15 12 10 6 9 10 18 22 21 20 21 22 23 25 23 21 20 20 22 22 21 22 22 23 26 29 31 32 30 29 27 30 30 31
30 29 29 28 24 22 21 14 11 10 9 9 6 12 18 24 20 20 20 22 22 24 23 24 22 22 24 23 22 21 21 22 23 25 28 31 31 29 27 28 30 30 26
27 28 26 24 21 19 18 18 17 14 7 15 23 23 21 19 20 21 22 24 23 23 23 24 24 23 24 22 23 22 21 22 23 25 27 29 28 26 27 26 24 25 28
25 23 24 23 22 20 18 11 3 13 22 21 15 19 20 21 21 20 22 23 24 22 24 26 25 24 28 21 22 22 23 22 24 25 28 25 25 23 24 27 23 23 26
22 25 25 26 23 14 2 14 19 15 12 12 16 22 22 20 22 22 23 24 22 21 25 29 23 25 24 19 22 23 22 22 23 24 24 21 20 21 21 22 24 27 30
24 23 18 12 3 7 20 21 10 10 14 17 19 20 22 25 25 26 21 21 21 23 24 25 23 23 22 20 22 22 23 22 22 21 19 18 17 17 17 23 24 25 31
18 12 4 4 16 25 11 7 12 16 18 20 22 22 24 26 25 25 22 23 23 26 25 26 25 23 21 20 21 22 24 21 20 17 15 15 15 16 17 18 19 23 26
3 10 18 17 9 7 9 14 18 20 21 23 24 25 27 27 28 26 23 23 25 28 26 25 25 23 21 21 21 22 21 19 17 17 16 15 14 16 18 18 18 20 22
9 9 6 6 10 14 16 17 18 21 24 26 28 30 29 29 28 26 23 25 27 28 28 26 24 23 23 23 22 21 18 18 18 17 17 15 15 17 20 20 20 18 17
4 6 9 11 14 16 19 20 21 23 27 30 31 33 34 31 27 27 26 26 26 28 27 27 27 26 26 25 22 19 17 18 18 19 18 15 15 18 21 22 20 18 18
7 9 11 13 15 17 19 22 26 29 31 32 35 36 35 34 31 28 28 27 25 26 28 28 27 33 29 26 24 21 20 19 20 20 18 16 16 18 22 22 21 20 21
10 13 17 20 23 27 28 30 32 35 32 33 35 34 35 37 35 34 31 27 26 26 26 28 27 23 25 28 28 24 22 22 22 20 18 16 16 18 22 19 18 18 18
16 19 23 26 29 31 34 40 38 39 40 39 37 34 36 38 36 38 42 24 26 24 24 28 30 27 28 27 30 26 23 23 21 19 17 16 15 18 21 17 16 15 17
21 24 26 29 31 33 34 36 41 45 41 40 35 33 32 33 32 29 26 26 24 23 25 28 28 27 32 28 26 25 24 23 22 20 18 14 15 17 17 16 15 15 15
23 26 28 30 32 33 34 35 36 37 40 43 38 33 32 30 28 26 25 29 23 25 28 29 31 28 26 29 27 23 22 21 19 20 16 13 13 15 14 15 14 14 14
26 28 30 31 31 31 32 33 34 35 36 37 37 32 30 29 26 25 22 24 25 30 30 28 27 30 25 26 29 21 21 20 19 21 18 14 13 14 14 14 13 12 12
26 28 29 29 29 29 29 31 29 30 34 33 34 34 35 30 36 23 23 24 25 27 28 26 24 24 25 24 22 19 19 20 20 21 20 16 14 14 13 14 12 11 11
26 26 26 26 26 26 27 27 26 26 29 32 27 25 28 29 26 22 23 24 24 23 22 23 19 22 23 22 18 20 19 20 22 21 19 19 17 15 13 13 11 10 10
24 24 24 25 25 26 26 25 25 26 28 29 30 28 22 13 10 9 12 13 13 16 21 15 18 20 20 19 19 21 21 20 20 23 22 18 18 15 14 13 11 10 9
23 23 24 24 24 24 24 24 25 26 28 28 28 28 27 25 21 19 15 14 14 12 12 14 16 17 17 14 16 19 21 19 17 18 18 18 18 17 15 13 11 10 8
22 23 23 23 24 24 24 25 25 26 26 27 26 25 24 23 24 22 21 18 15 16 18 17 16 17 15 14 12 16 17 18 18 17 18 19 18 17 17 15 13 10 9
21 21 22 23 24 24 24 24 25 25 26 26 26 25 24 23 23 23 21 20 17 15 15 15 17 16 16 14 12 12 13 14 15 16 19 19 20 19 18 15 14 11 10
21 21 22 22 23 23 24 25 25 25 26 26 25 25 25 25 25 24 23 21 19 16 15 14 14 14 16 16 11 12 14 16 17 16 15 17 20 20 19 17 15 13 11
Wind_Direction
230 232 234 241 228 229 237 233 233 239 239 252 264 277 273 289 293 310 315 309 305 309 319 327 316 305 301 300 299 297 295 296 297 302 307 311 313 314 313 312 309 309 306
228 235 247 225 224 240 226 228 231 234 246 255 253 257 280 277 305 316 312 307 306 310 318 320 311 306 306 300 297 296 296 295 299 304 307 311 312 315 315 313 313 309 307
238 240 225 226 238 228 226 230 235 234 249 251 271 267 285 311 314 313 314 311 312 311 310 310 305 300 301 295 295 295 293 297 304 306 309 312 314 318 317 316 317 314 310
235 223 226 230 220 225 229 229 225 237 242 265 241 269 299 296 304 306 306 306 309 305 307 303 296 291 294 296 301 295 296 300 302 304 306 310 314 319 318 322 319 321 317
218 218 223 218 219 221 218 226 236 222 187 204 230 282 293 299 292 298 304 306 302 296 295 300 285 282 293 296 300 297 296 299 300 303 307 309 313 317 320 320 318 320 322
218 219 215 209 210 211 211 207 201 191 216 280 277 287 292 281 296 299 301 301 296 291 286 294 303 289 286 291 298 294 296 299 300 303 305 308 311 316 318 319 323 324 322
214 205 201 203 202 199 196 185 245 295 293 289 303 285 287 284 292 296 297 295 296 289 283 287 294 287 284 289 294 292 295 296 299 301 305 307 308 315 316 316 318 317 313
201 195 195 197 195 181 170 315 311 298 295 292 286 286 287 292 297 297 295 291 288 285 277 291 289 292 287 291 289 286 288 291 294 296 298 302 306 315 315 313 308 302 300
179 176 173 170 158 301 309 304 289 286 289 293 288 290 293 295 297 295 286 284 283 279 292 292 287 284 287 289 287 283 284 288 292 296 296 301 303 309 313 307 303 304 308
160 152 130 324 308 303 307 302 301 294 291 288 291 294 295 296 296 295 291 287 283 287 286 289 278 278 283 285 291 285 283 290 293 290 291 294 295 306 313 315 306 302 305
196 279 291 302 308 308 301 300 299 296 293 294 295 295 294 294 293 292 288 279 277 286 282 278 275 271 275 281 289 285 283 287 291 290 291 295 302 311 318 321 311 305 301
304 306 313 319 315 308 305 305 302 300 299 299 298 296 296 295 291 291 287 284 286 285 282 277 276 269 269 275 281 285 278 287 287 289 290 300 309 318 323 322 317 310 299
7 337 324 320 319 314 308 306 307 306 303 300 298 297 298 297 292 293 290 286 284 280 278 276 277 263 264 266 273 276 271 285 282 284 287 295 309 318 325 322 315 313 309
331 324 318 311 307 305 303 303 303 302 303 301 299 296 296 296 290 294 294 289 284 279 279 281 287 271 255 260 266 266 268 280 273 277 285 292 304 317 324 321 317 320 325
319 313 310 309 308 307 303 302 298 296 297 297 297 300 297 292 293 289 288 285 286 283 284 279 275 271 264 264 266 268 264 272 270 270 280 287 298 311 320 319 316 320 326
316 315 314 313 312 310 308 305 302 300 299 297 294 296 295 294 291 287 284 274 283 284 276 274 277 263 265 268 267 269 266 267 268 261 270 279 290 303 316 314 313 317 325
318 317 316 316 317 318 319 318 315 311 311 310 306 301 298 294 291 295 280 272 270 276 270 271 272 272 270 265 268 268 267 268 270 247 259 270 283 300 308 308 310 317 324
322 323 323 323 323 321 320 318 318 319 316 315 312 307 299 299 297 290 286 284 277 271 270 267 272 277 280 267 268 269 269 268 250 236 247 259 274 300 302 303 306 316 324
327 326 326 325 325 323 322 322 325 328 323 316 315 314 308 296 300 286 283 283 281 276 274 277 280 277 277 280 269 263 263 259 244 237 242 250 266 290 299 299 303 311 317
329 329 327 327 327 327 328 329 326 329 334 324 321 319 329 314 304 279 285 285 283 279 273 276 279 282 281 276 271 255 257 248 243 237 240 243 259 278 293 289 296 306 314
330 329 333 335 335 334 332 330 334 335 328 340 334 319 312 313 306 292 299 299 297 294 276 276 279 286 285 277 258 246 250 246 241 239 243 246 250 265 283 281 288 298 306
333 335 335 335 335 335 336 335 330 326 329 331 332 340 343 342 335 332 310 312 313 294 293 300 293 294 288 283 264 244 248 247 243 241 242 243 245 253 265 268 277 288 297
332 331 330 330 330 330 330 332 332 330 330 331 330 331 335 335 333 332 323 309 307 306 295 285 289 297 302 298 263 248 244 244 248 243 239 236 237 242 252 258 263 275 281
331 330 328 328 328 329 329 330 330 330 332 333 333 334 332 329 326 329 329 325 315 305 296 292 289 291 293 309 281 253 248 242 243 244 232 230 231 234 241 248 255 264 265
331 330 329 331 330 329 329 329 329 330 332 333 333 333 332 327 326 325 326 328 326 323 321 313 283 280 275 277 295 276 258 247 245 243 240 235 231 231 235 241 246 252 256
332 331 329 330 328 328 330 331 331 331 330 330 331 330 329 326 327 327 324 323 323 320 325 325 317 287 278 264 259 265 258 253 249 241 237 235 230 228 229 230 236 243 248